Time,TemperatureF,DewpointF,PressureIn,WindDirection,WindDirectionDegrees,WindSpeedMPH,WindSpeedGustMPH,Humidity,HourlyPrecipIn,Conditions,Clouds,dailyrainin,SoftwareType,DateUTC
2013-03-20 00:07:00,68.0,67.4,30.00,North,0,2.7,-999.0,98,-99.99,,,0.00,Acu-Link.com,2013-03-19 22:07:00,
2013-03-20 00:37:00,68.0,67.4,30.00,North,0,1.1,-999.0,98,-99.99,,,0.00,Acu-Link.com,2013-03-19 22:37:00,
2013-03-20 00:52:00,68.0,67.4,29.99,North,0,1.1,-999.0,98,-99.99,,,0.00,Acu-Link.com,2013-03-19 22:52:00,
2013-03-20 01:07:00,66.2,65.6,29.98,North,0,2.7,-999.0,98,-99.99,,,0.00,Acu-Link.com,2013-03-19 23:07:00,
2013-03-20 01:22:00,66.2,65.6,29.97,North,0,2.0,-999.0,98,-99.99,,,0.00,Acu-Link.com,2013-03-19 23:22:00,
2013-03-20 01:37:00,66.2,65.6,29.97,North,0,1.6,-999.0,98,-99.99,,,0.00,Acu-Link.com,2013-03-19 23:37:00,
2013-03-20 01:52:00,66.2,65.6,29.95,North,0,2.7,-999.0,98,-99.99,,,0.00,Acu-Link.com,2013-03-19 23:52:00,
2013-03-20 07:27:00,68.0,67.4,29.92,North,0,2.7,-999.0,98,-99.99,,,0.00,Acu-Link.com,2013-03-20 05:27:00,
2013-03-20 07:42:00,69.8,69.2,29.92,North,0,4.0,-999.0,98,-99.99,,,0.00,Acu-Link.com,2013-03-20 05:42:00,
2013-03-20 07:47:00,70.3,69.7,29.39,North,360,4.6,4.6,98,0.00,CLR,,0.00,WeatherDisplay:10.37,2013-03-20 05:47:00,
2013-03-20 07:52:00,70.0,69.4,29.38,North,360,4.7,4.7,98,0.00,CLR,,0.00,WeatherDisplay:10.37,2013-03-20 05:52:00,
2013-03-20 07:58:00,70.9,70.3,29.38,North,360,3.5,3.5,98,0.00,CLR,,0.00,WeatherDisplay:10.37,2013-03-20 05:58:00,
2013-03-20 08:03:00,72.3,71.7,29.38,North,360,4.2,4.2,98,0.00,CLR,,0.00,WeatherDisplay:10.37,2013-03-20 06:03:00,
2013-03-20 08:08:00,74.7,74.1,29.39,NNE,22,3.7,3.7,98,0.00,CLR,,0.00,WeatherDisplay:10.37,2013-03-20 06:08:00,
2013-03-20 08:13:00,75.9,75.3,29.39,NNE,22,4.6,4.6,98,0.00,CLR,,0.00,WeatherDisplay:10.37,2013-03-20 06:13:00,
2013-03-20 08:18:00,75.9,75.3,29.38,NNE,22,3.5,3.5,98,0.00,CLR,,0.00,WeatherDisplay:10.37,2013-03-20 06:18:00,
2013-03-20 08:23:00,77.4,76.8,29.38,NE,45,4.6,4.6,98,0.00,CLR,,0.00,WeatherDisplay:10.37,2013-03-20 06:23:00,
2013-03-20 08:28:00,77.7,77.1,29.38,East,90,5.8,5.8,98,0.00,CLR,,0.00,WeatherDisplay:10.37,2013-03-20 06:28:00,
2013-03-20 08:33:00,77.7,77.1,29.38,ESE,112,5.8,5.8,98,0.00,CLR,,0.00,WeatherDisplay:10.37,2013-03-20 06:33:00,
2013-03-20 08:38:00,78.3,77.7,29.38,NE,45,4.6,4.6,98,0.00,CLR,,0.00,WeatherDisplay:10.37,2013-03-20 06:38:00,
2013-03-20 08:43:00,78.8,78.2,29.38,NE,45,4.6,4.6,98,0.00,CLR,,0.00,WeatherDisplay:10.37,2013-03-20 06:43:00,
2013-03-20 08:48:00,78.8,78.2,29.38,ENE,68,5.8,5.8,98,0.00,CLR,,0.00,WeatherDisplay:10.37,2013-03-20 06:48:00,
2013-03-20 08:53:00,78.8,78.2,29.37,NE,45,5.8,5.8,98,0.00,CLR,,0.00,WeatherDisplay:10.37,2013-03-20 06:53:00,
2013-03-20 08:58:00,78.3,77.7,29.37,NNE,22,6.9,6.9,98,0.00,CLR,,0.00,WeatherDisplay:10.37,2013-03-20 06:58:00,
2013-03-20 09:03:00,79.2,78.6,29.37,NNE,22,5.8,5.8,98,0.00,CLR,,0.00,WeatherDisplay:10.37,2013-03-20 07:03:00,
2013-03-20 09:08:00,79.3,78.7,29.37,East,90,6.9,6.9,98,0.00,CLR,,0.00,WeatherDisplay:10.37,2013-03-20 07:08:00,
2013-03-20 09:13:00,79.2,78.6,29.37,ENE,68,6.9,6.9,98,0.00,CLR,,0.00,WeatherDisplay:10.37,2013-03-20 07:13:00,
2013-03-20 09:18:00,78.3,77.7,29.37,NE,45,5.8,5.8,98,0.00,CLR,,0.00,WeatherDisplay:10.37,2013-03-20 07:18:00,
2013-03-20 09:23:00,79.5,78.9,29.37,NE,45,6.9,6.9,98,0.00,CLR,,0.00,WeatherDisplay:10.37,2013-03-20 07:23:00,
2013-03-20 09:28:00,80.6,80.0,29.36,NE,45,5.8,5.8,98,0.00,CLR,,0.00,WeatherDisplay:10.37,2013-03-20 07:28:00,
2013-03-20 09:33:00,80.6,80.0,29.36,NNW,338,4.6,4.6,98,0.00,CLR,,0.00,WeatherDisplay:10.37,2013-03-20 07:33:00,
2013-03-20 09:38:00,81.1,80.5,29.36,NE,45,4.7,4.7,98,0.00,CLR,,0.00,WeatherDisplay:10.37,2013-03-20 07:38:00,
2013-03-20 09:43:00,81.1,80.5,29.36,NE,45,4.7,4.7,98,0.00,CLR,,0.00,WeatherDisplay:10.37,2013-03-20 07:43:00,
2013-03-20 09:48:00,80.8,41.7,29.36,NNE,22,5.8,5.8,25,0.00,CLR,,0.00,WeatherDisplay:10.37,2013-03-20 07:48:00,
2013-03-20 09:53:00,81.1,23.7,29.36,NNE,22,6.9,6.9,12,0.00,CLR,,0.00,WeatherDisplay:10.37,2013-03-20 07:53:00,
2013-03-20 09:58:00,82.0,4.3,29.36,NE,45,5.8,5.8,5,0.00,CLR,,0.00,WeatherDisplay:10.37,2013-03-20 07:58:00,
2013-03-20 10:03:00,83.3,38.0,29.36,East,90,5.8,5.8,20,0.00,CLR,,0.00,WeatherDisplay:10.37,2013-03-20 08:03:00,
2013-03-20 10:08:00,83.5,55.2,29.36,ENE,68,6.3,6.3,38,0.00,CLR,,0.00,WeatherDisplay:10.37,2013-03-20 08:08:00,
2013-03-20 10:13:00,85.3,84.0,29.36,NNE,22,5.8,5.8,96,0.00,CLR,,0.00,WeatherDisplay:10.37,2013-03-20 08:13:00,
2013-03-20 10:18:00,84.7,84.1,29.36,ENE,68,5.8,5.8,98,0.00,CLR,,0.00,WeatherDisplay:10.37,2013-03-20 08:18:00,
2013-03-20 10:24:00,85.6,85.0,29.36,NNE,22,5.8,5.8,98,0.00,CLR,,0.00,WeatherDisplay:10.37,2013-03-20 08:24:00,
2013-03-20 10:29:00,86.0,85.4,29.36,ESE,112,4.6,4.6,98,0.00,CLR,,0.00,WeatherDisplay:10.37,2013-03-20 08:29:00,
2013-03-20 10:34:00,86.4,85.8,29.36,NE,45,5.8,5.8,98,0.00,CLR,,0.00,WeatherDisplay:10.37,2013-03-20 08:34:00,
2013-03-20 10:39:00,87.1,86.5,29.36,NE,45,4.6,4.6,98,0.00,CLR,,0.00,WeatherDisplay:10.37,2013-03-20 08:39:00,
2013-03-20 10:44:00,86.9,86.3,29.35,NE,45,6.9,6.9,98,0.00,CLR,,0.00,WeatherDisplay:10.37,2013-03-20 08:44:00,
2013-03-20 10:49:00,86.9,86.3,29.35,NE,45,5.8,5.8,98,0.00,CLR,,0.00,WeatherDisplay:10.37,2013-03-20 08:49:00,
2013-03-20 10:54:00,87.6,87.0,29.35,North,360,5.8,5.8,98,0.00,CLR,,0.00,WeatherDisplay:10.37,2013-03-20 08:54:00,
2013-03-20 10:59:00,87.8,87.2,29.35,NNE,22,6.9,6.9,98,0.00,CLR,,0.00,WeatherDisplay:10.37,2013-03-20 08:59:00,
2013-03-20 11:04:00,85.8,85.2,29.34,ESE,112,5.8,5.8,98,0.00,CLR,,0.00,WeatherDisplay:10.37,2013-03-20 09:04:00,
2013-03-20 11:09:00,84.4,83.8,29.34,East,90,5.8,5.8,98,0.00,CLR,,0.00,WeatherDisplay:10.37,2013-03-20 09:09:00,
2013-03-20 11:14:00,84.6,84.0,29.34,NNE,22,5.8,5.8,98,0.00,CLR,,0.00,WeatherDisplay:10.37,2013-03-20 09:14:00,
2013-03-20 11:19:00,84.9,84.3,29.34,ESE,112,6.9,6.9,98,0.00,CLR,,0.00,WeatherDisplay:10.37,2013-03-20 09:19:00,
2013-03-20 11:24:00,85.5,84.9,29.34,ESE,112,5.8,5.8,98,0.00,CLR,,0.00,WeatherDisplay:10.37,2013-03-20 09:24:00,
2013-03-20 11:29:00,86.2,85.6,29.34,SE,135,5.8,5.8,98,0.00,CLR,,0.00,WeatherDisplay:10.37,2013-03-20 09:29:00,
2013-03-20 11:34:00,85.3,84.7,29.34,SE,135,5.8,5.8,98,0.00,CLR,,0.00,WeatherDisplay:10.37,2013-03-20 09:34:00,
2013-03-20 11:39:00,85.1,84.5,29.33,East,90,6.3,6.3,98,0.00,CLR,,0.00,WeatherDisplay:10.37,2013-03-20 09:39:00,
2013-03-20 11:44:00,85.8,85.2,29.33,ESE,112,5.8,5.8,98,0.00,CLR,,0.00,WeatherDisplay:10.37,2013-03-20 09:44:00,
2013-03-20 11:49:00,84.9,84.3,29.33,NNE,22,5.8,5.8,98,0.00,CLR,,0.00,WeatherDisplay:10.37,2013-03-20 09:49:00,
2013-03-20 11:54:00,86.4,85.8,29.32,NE,45,6.9,6.9,98,0.00,CLR,,0.00,WeatherDisplay:10.37,2013-03-20 09:54:00,
2013-03-20 11:59:00,85.8,85.2,29.32,NE,45,6.9,6.9,98,0.00,CLR,,0.00,WeatherDisplay:10.37,2013-03-20 09:59:00,
2013-03-20 12:04:00,85.5,79.7,29.32,ENE,68,6.9,6.9,83,0.00,CLR,,0.00,WeatherDisplay:10.37,2013-03-20 10:04:00,
2013-03-20 12:09:00,85.8,78.9,29.32,ESE,112,5.8,5.8,80,0.00,CLR,,0.00,WeatherDisplay:10.37,2013-03-20 10:09:00,
2013-03-20 12:14:00,86.2,77.3,29.32,East,90,8.1,8.1,75,0.00,CLR,,0.00,WeatherDisplay:10.37,2013-03-20 10:14:00,
2013-03-20 12:19:00,85.6,75.5,29.32,ENE,68,8.1,8.1,72,0.00,CLR,,0.00,WeatherDisplay:10.37,2013-03-20 10:19:00,
2013-03-20 12:24:00,85.6,75.1,29.32,NE,45,9.2,9.2,71,0.00,CLR,,0.00,WeatherDisplay:10.37,2013-03-20 10:24:00,
2013-03-20 12:29:00,86.9,77.2,29.30,East,90,5.8,5.8,73,0.00,CLR,,0.00,WeatherDisplay:10.37,2013-03-20 10:29:00,
2013-03-20 12:34:00,86.9,78.0,29.30,ESE,112,9.2,9.2,75,0.00,CLR,,0.00,WeatherDisplay:10.37,2013-03-20 10:34:00,
2013-03-20 12:39:00,84.9,75.7,29.30,ESE,112,8.1,8.1,74,0.00,CLR,,0.00,WeatherDisplay:10.37,2013-03-20 10:39:00,
2013-03-20 12:44:00,86.2,74.0,29.30,NE,45,6.9,6.9,67,0.00,CLR,,0.00,WeatherDisplay:10.37,2013-03-20 10:44:00,
2013-03-20 12:49:00,86.2,74.4,29.30,East,90,8.1,8.1,68,0.00,CLR,,0.00,WeatherDisplay:10.37,2013-03-20 10:49:00,
2013-03-20 12:54:00,85.5,71.9,29.30,ESE,112,9.2,9.2,64,0.00,CLR,,0.00,WeatherDisplay:10.37,2013-03-20 10:54:00,
2013-03-20 12:59:00,85.1,66.0,29.30,NNE,22,10.4,10.4,53,0.00,CLR,,0.00,WeatherDisplay:10.37,2013-03-20 10:59:00,
2013-03-20 13:04:00,85.6,61.8,29.29,ENE,68,6.9,6.9,45,0.00,CLR,,0.00,WeatherDisplay:10.37,2013-03-20 11:04:00,
2013-03-20 13:09:00,86.4,58.5,29.29,East,90,9.2,9.2,39,0.00,CLR,,0.00,WeatherDisplay:10.37,2013-03-20 11:09:00,
2013-03-20 14:14:00,86.0,81.0,29.28,East,90,6.9,6.9,85,0.00,CLR,,0.00,WeatherDisplay:10.37,2013-03-20 12:14:00,
2013-03-20 14:17:00,86.0,81.0,29.28,East,90,6.9,6.9,85,0.00,CLR,,0.00,WeatherDisplay:10.37,2013-03-20 12:17:00,
2013-03-20 14:19:00,86.0,81.0,29.28,East,90,6.9,6.9,85,0.00,CLR,,0.00,WeatherDisplay:10.37,2013-03-20 12:19:00,
2013-03-20 14:24:00,86.0,81.0,29.28,East,90,6.9,6.9,85,0.00,CLR,,0.00,WeatherDisplay:10.37,2013-03-20 12:24:00,
2013-03-20 14:29:00,86.0,85.4,29.81,ESE,112,6.7,-999.0,98,-99.99,,,0.00,Acu-Link.com,2013-03-20 12:29:00,
2013-03-20 14:44:00,86.0,85.4,29.81,ESE,112,5.1,-999.0,98,-99.99,,,0.00,Acu-Link.com,2013-03-20 12:44:00,
2013-03-20 15:00:00,86.0,85.4,29.81,ESE,112,8.7,-999.0,98,-99.99,,,0.00,Acu-Link.com,2013-03-20 13:00:00,
2013-03-20 15:10:00,86.0,81.0,29.28,East,90,6.9,6.9,85,0.00,CLR,,0.00,WeatherDisplay:10.37,2013-03-20 13:10:00,
2013-03-20 15:16:00,86.0,81.0,29.28,East,90,6.9,6.9,85,0.00,CLR,,0.00,WeatherDisplay:10.37,2013-03-20 13:16:00,
2013-03-20 15:21:00,86.0,81.0,29.28,East,90,6.9,6.9,85,0.00,CLR,,0.00,WeatherDisplay:10.37,2013-03-20 13:21:00,
2013-03-20 15:30:00,84.2,83.6,29.80,NE,45,7.2,-999.0,98,-99.99,,,0.00,Acu-Link.com,2013-03-20 13:30:00,
2013-03-20 15:45:00,86.0,85.4,29.80,East,90,6.7,-999.0,98,-99.99,,,0.00,Acu-Link.com,2013-03-20 13:45:00,
2013-03-20 16:00:00,86.0,81.7,29.80,ESE,112,6.7,-999.0,87,-99.99,,,0.00,Acu-Link.com,2013-03-20 14:00:00,
2013-03-20 16:15:00,84.2,83.6,29.80,East,90,7.8,-999.0,98,-99.99,,,0.00,Acu-Link.com,2013-03-20 14:15:00,
2013-03-20 16:30:00,82.4,81.8,29.80,ESE,112,5.6,-999.0,98,-99.99,,,0.00,Acu-Link.com,2013-03-20 14:30:00,
2013-03-20 16:45:00,82.4,78.1,29.80,ESE,112,6.7,-999.0,87,-99.99,,,0.00,Acu-Link.com,2013-03-20 14:45:00,
2013-03-20 17:00:00,82.4,73.3,29.81,ESE,112,9.2,-999.0,74,-99.99,,,0.00,Acu-Link.com,2013-03-20 15:00:00,
2013-03-20 17:15:00,80.6,71.5,29.81,ESE,112,6.3,-999.0,74,-99.99,,,0.00,Acu-Link.com,2013-03-20 15:15:00,
2013-03-20 17:30:00,82.4,81.8,29.81,East,90,3.6,-999.0,98,-99.99,,,0.00,Acu-Link.com,2013-03-20 15:30:00,
2013-03-20 17:46:00,80.6,80.0,29.81,ESE,112,5.6,-999.0,98,-99.99,,,0.00,Acu-Link.com,2013-03-20 15:46:00,
2013-03-20 18:01:00,80.6,73.1,29.81,ESE,112,4.7,-999.0,78,-99.99,,,0.00,Acu-Link.com,2013-03-20 16:01:00,